KZR993 UACC-UACC

Flight info

Callsign KZR993
Flight time 0h 19m
Altitude 4000
Route RA/A040
Aircraft A21N/M-SDE3FGHIRWY/LB1

Departure

Time 2026-04-26 16:18
Airport Nursultan Nazarbayev International Airport (UACC)

Arrival

Time 2026-04-26 16:37
Airport Nursultan Nazarbayev International Airport (UACC)
Time Latitude Longitude Altitude Speed Heading
2026-04-26 16:17 50.92245 71.76650 3686 ft 295 kts 45°
2026-04-26 16:18 50.92847 71.77635 3679 ft 295 kts 45°
2026-04-26 16:18 50.95588 71.82127 3673 ft 296 kts 45°
2026-04-26 16:19 50.98482 71.86879 3672 ft 295 kts 45°
2026-04-26 16:19 50.99908 71.89223 3672 ft 295 kts 45°
2026-04-26 16:19 51.02712 71.93813 3672 ft 296 kts 45°
2026-04-26 16:20 51.04160 71.96157 3673 ft 298 kts 45°
2026-04-26 16:20 51.07024 72.00774 3665 ft 297 kts 45°
2026-04-26 16:20 51.08427 72.03049 3664 ft 297 kts 45°
2026-04-26 16:21 51.09876 72.05394 3656 ft 298 kts 45°
2026-04-26 16:21 51.11288 72.07664 3663 ft 299 kts 45°
2026-04-26 16:21 51.12684 72.09910 3665 ft 298 kts 45°
2026-04-26 16:21 51.14210 72.12263 3658 ft 299 kts 37°
2026-04-26 16:22 51.16038 72.13701 3656 ft 291 kts
2026-04-26 16:22 51.18007 72.13718 3656 ft 273 kts 339°
2026-04-26 16:22 51.19603 72.12525 3650 ft 244 kts 319°
2026-04-26 16:22 51.20908 72.11074 3649 ft 226 kts 315°
2026-04-26 16:23 51.22131 72.09656 3638 ft 210 kts 315°
2026-04-26 16:23 51.23215 72.08401 3633 ft 203 kts 315°
2026-04-26 16:23 51.24402 72.07012 3635 ft 202 kts 315°
2026-04-26 16:23 51.25534 72.05682 3637 ft 202 kts 315°
2026-04-26 16:24 51.26668 72.04353 3633 ft 202 kts 315°
2026-04-26 16:24 51.27808 72.03011 3631 ft 201 kts 315°
2026-04-26 16:24 51.28937 72.01685 3632 ft 201 kts 315°
2026-04-26 16:24 51.30053 72.00378 3637 ft 201 kts 315°
2026-04-26 16:25 51.31053 71.98903 3621 ft 190 kts 293°
2026-04-26 16:25 51.31319 71.96948 3631 ft 177 kts 256°
2026-04-26 16:25 51.30746 71.95233 3652 ft 175 kts 230°
2026-04-26 16:25 51.29891 71.93828 3651 ft 176 kts 226°
2026-04-26 16:26 51.28997 71.92485 3647 ft 175 kts 225°
2026-04-26 16:26 51.28130 71.91200 3635 ft 163 kts 225°
2026-04-26 16:26 51.27302 71.89978 3645 ft 161 kts 225°
2026-04-26 16:26 51.26495 71.88778 3679 ft 156 kts 225°
2026-04-26 16:27 51.25734 71.87665 3691 ft 136 kts 225°
2026-04-26 16:27 51.25061 71.86716 3647 ft 126 kts 225°
2026-04-26 16:27 51.24400 71.85820 3653 ft 124 kts 225°
2026-04-26 16:27 51.23745 71.84923 3663 ft 124 kts 225°
2026-04-26 16:28 51.23084 71.84013 3666 ft 124 kts 225°
2026-04-26 16:28 51.22426 71.83100 3631 ft 125 kts 225°
2026-04-26 16:28 51.21783 71.82185 3519 ft 124 kts 226°
2026-04-26 16:28 51.21139 71.81245 3401 ft 124 kts 227°
2026-04-26 16:29 51.20525 71.80309 3271 ft 123 kts 229°
2026-04-26 16:29 51.19901 71.79361 3159 ft 123 kts 227°
2026-04-26 16:29 51.19249 71.78458 3039 ft 123 kts 225°
2026-04-26 16:29 51.18601 71.77579 2904 ft 122 kts 225°
2026-04-26 16:30 51.17982 71.76643 2719 ft 122 kts 229°
2026-04-26 16:30 51.17391 71.75691 2670 ft 120 kts 233°
2026-04-26 16:30 51.16837 71.74680 2750 ft 121 kts 232°
2026-04-26 16:30 51.16252 71.73686 2853 ft 121 kts 230°
2026-04-26 16:31 51.15658 71.72727 2976 ft 121 kts 229°
2026-04-26 16:31 51.15049 71.71800 3004 ft 121 kts 229°
2026-04-26 16:31 51.14441 71.70879 3028 ft 120 kts 229°
2026-04-26 16:31 51.13831 71.69971 3049 ft 120 kts 229°
2026-04-26 16:32 51.13208 71.69063 3068 ft 120 kts 230°
2026-04-26 16:32 51.12623 71.68136 3072 ft 120 kts 231°
2026-04-26 16:32 51.12048 71.67152 3038 ft 120 kts 234°
2026-04-26 16:32 51.11508 71.66146 2993 ft 120 kts 237°
2026-04-26 16:33 51.10982 71.65099 2925 ft 120 kts 239°
2026-04-26 16:33 51.10526 71.63995 2884 ft 120 kts 240°
2026-04-26 16:33 51.10010 71.62937 2867 ft 120 kts 236°
2026-04-26 16:33 51.09465 71.61928 2841 ft 120 kts 235°
2026-04-26 16:34 51.08939 71.60920 2774 ft 119 kts 237°
2026-04-26 16:34 51.08454 71.59864 2590 ft 120 kts 236°
2026-04-26 16:34 51.07930 71.58807 2273 ft 119 kts 237°
2026-04-26 16:34 51.07428 71.57783 2041 ft 118 kts 236°
2026-04-26 16:35 51.06947 71.56743 1916 ft 117 kts 239°
2026-04-26 16:35 51.06525 71.55685 1820 ft 117 kts 244°
2026-04-26 16:35 51.06114 71.54529 1811 ft 117 kts 244°
2026-04-26 16:35 51.05764 71.53369 1888 ft 117 kts 249°
2026-04-26 16:36 51.05412 71.52223 1875 ft 119 kts 243°
2026-04-26 16:36 51.04942 71.51143 1746 ft 118 kts 236°
2026-04-26 16:36 51.04440 71.50169 1572 ft 117 kts 235°
2026-04-26 16:36 51.03899 71.49189 1368 ft 116 kts 232°
2026-04-26 16:37 51.03344 71.48305 1191 ft 115 kts 230°
2026-04-26 16:37 51.02926 71.47650 1175 ft 62 kts 224°
2026-04-26 16:37 51.02754 71.47386 1175 ft 6 kts 222°
2026-04-26 16:37 51.02712 71.47324 1175 ft 14 kts 224°